Location: Albany
(35.0000°S, 118.0000°E)
Time: 13:53:12
(UTC-04:00)

ADEOS Rocket - Visible Passes

Search period start: 30 September 2014 00:00
Search period end: 10 October 2014 00:00
Orbit: 860 x 1306 km, 98.7° (Epoch: 29 September)

Date Brightness Start Highest point End Pass type
(mag) Time Alt. Az. Time Alt. Az. Time Alt. Az.
30 Sep 5.6 10:14:32 10° S 10:14:33 10° S 10:14:33 10° S visible
02 Oct 5.5 10:22:24 10° S 10:22:45 12° S 10:22:45 12° S visible
03 Oct 5.3 09:33:08 10° SSE 09:33:22 11° SSE 09:33:22 11° SSE visible
04 Oct 5.4 10:30:18 10° S 10:30:57 13° SSW 10:30:57 13° SSW visible
05 Oct 5.2 09:40:51 10° SSE 09:41:35 14° SSE 09:41:35 14° SSE visible
06 Oct 5.4 10:38:14 10° SSW 10:39:11 14° SSW 10:39:11 14° SSW visible
07 Oct 5.0 09:48:36 10° S 09:49:49 17° S 09:49:49 17° S visible
08 Oct 5.1 08:59:58 10° SSE 09:00:27 12° SSE 09:00:27 12° SSE visible
08 Oct 5.4 10:46:12 10° SSW 10:47:26 15° SSW 10:47:26 15° SSW visible
09 Oct 4.9 09:56:22 10° S 09:58:04 21° S 09:58:04 21° S visible
